Home > Weather > Shymkent > Past weeks

Flag for Kazakhstan Past Weather in Shymkent, Kazakhstan — Yesterday and Last 2 Weeks

Now
81 °F

Clear.


Feels Like: 79 °F
Forecast: 67 / 91 °F
Wind: 13 mph from East

Location: Shymkent Airport

Current Time: Aug 24, 2016 at 10:25:55 PM

Latest Report: Aug 24, 2016 at 10:00 PM


Visibility: 10 mi

Pressure: 29.83 "Hg (28.16 "Hg at 506m altitude)

Humidity: 23%

Dew Point: 39 °F

Location of ShymkentLocation

Past Weather in Shymkent — Graph

°F

Shymkent Temperature Yesterday

Maximum temperature yesterday: 91 °F (at 2:30 PM)
Minimum temperature yesterday: 61 °F (at 6:00 AM)
Average temperature yesterday: 78 °F

High & Low Weather Summary for the Past Weeks

 TemperatureHumidityPressure
High102 °F (Aug 10, 3:30 PM)60% (Aug 23, 8:00 AM)29.95 "Hg (Aug 23, 8:00 AM)
Low61 °F (Aug 17, 6:30 AM)11% (Aug 10, 4:00 PM)29.62 "Hg (Aug 10, 2:00 AM)
Average83 °F27%29.76 "Hg
* Reported Aug 9 9:00 PM — Aug 24 9:00 PM, Shymkent, Weather by CustomWeather, © 2016

Note: Actual official high and low records may vary slightly from our data, if they occured in-between our weather recording intervals... More about our weather records

Advertising

Shymkent Weather History for the Previous 24 Hours

Scroll right to see more
 ConditionsComfort  
Time TempWeatherWind HumidityBarometerVisibility
9:00 PM
Wed, Aug 24
82 °FClear.6 mph21%29.83 "Hg10 mi
8:30 PM84 °FClear.6 mph20%29.80 "Hg10 mi
8:00 PM86 °FSunny.8 mph18%29.80 "Hg10 mi
7:30 PM86 °FSunny.10 mph18%29.80 "Hg10 mi
7:00 PM88 °FSunny.8 mph16%29.83 "Hg10 mi
6:30 PM90 °FPassing clouds.3 mph16%29.83 "HgN/A
6:00 PM91 °FPassing clouds.3 mph16%29.83 "HgN/A
5:30 PM91 °FPassing clouds.3 mph15%29.83 "HgN/A
5:00 PM91 °FPassing clouds.3 mph15%29.83 "HgN/A
4:30 PM91 °FPassing clouds.3 mph17%29.83 "HgN/A
4:00 PM91 °FSunny.3 mph17%29.83 "Hg10 mi
3:30 PM91 °FPassing clouds.6 mph17%29.83 "HgN/A
3:00 PM91 °FSunny.3 mph17%29.86 "Hg10 mi
2:30 PM90 °FPassing clouds.3 mph18%29.86 "HgN/A
2:00 PM90 °FSunny.6 mph17%29.86 "Hg10 mi
1:30 PM90 °FSunny.3 mph18%29.86 "Hg10 mi
1:00 PM90 °FSunny.3 mph17%29.86 "Hg10 mi
12:30 PM90 °FSunny.3 mph16%29.89 "Hg10 mi
12:00 PM88 °FSunny.1 mph17%29.89 "Hg10 mi
11:30 AM88 °FSunny.No wind18%29.89 "Hg10 mi
11:00 AM86 °FSunny.1 mph18%29.89 "Hg10 mi
10:30 AM84 °FSunny.1 mph22%29.89 "Hg10 mi
10:00 AM82 °FSunny.1 mph23%29.89 "Hg10 mi
9:30 AM81 °FPassing clouds.3 mph24%29.89 "HgN/A
9:00 AM77 °FSunny.1 mph30%29.92 "Hg10 mi
8:30 AM73 °FSunny.3 mph36%29.92 "Hg10 mi
8:00 AM70 °FPassing clouds.3 mph38%29.89 "HgN/A
7:30 AM64 °FSunny.1 mph49%29.89 "Hg10 mi
7:00 AM61 °FPassing clouds.3 mph52%29.89 "HgN/A
6:30 AM61 °FClear.3 mph52%29.89 "Hg10 mi
6:00 AM63 °FClear.3 mph49%29.89 "Hg10 mi
5:30 AM68 °FClear.6 mph38%29.89 "Hg10 mi
5:00 AM68 °FClear.13 mph35%29.89 "Hg10 mi
4:30 AM68 °FClear.13 mph35%29.89 "Hg10 mi
4:00 AM70 °FClear.13 mph31%29.89 "Hg10 mi
3:30 AM70 °FClear.13 mph31%29.89 "Hg10 mi
3:00 AM72 °FClear.6 mph27%29.89 "Hg10 mi
2:30 AM72 °FClear.6 mph27%29.89 "Hg10 mi
2:00 AM72 °FClear.6 mph25%29.92 "Hg10 mi
1:30 AM73 °FClear.6 mph23%29.92 "Hg10 mi
1:00 AM73 °FClear.6 mph23%29.92 "Hg10 mi
12:30 AM73 °FClear.6 mph25%29.92 "Hg10 mi
12:00 AM75 °FClear.6 mph22%29.92 "Hg10 mi
11:30 PM
Tue, Aug 23
75 °FClear.8 mph22%29.92 "Hg10 mi
11:00 PM75 °FClear.8 mph24%29.95 "Hg10 mi
10:30 PM77 °FClear.13 mph22%29.95 "Hg10 mi
10:00 PM79 °FClear.13 mph21%29.95 "Hg10 mi
Weather by CustomWeather, © 2016

See weather overviewHow to use our weather pages